This demonstration page uses our WeatherBlox Daily Observations layout. Learn more.

Left ArrowRight Arrow

44.8408, -93.29828

Hourly Observations for February 4, 2022

Temp ( °F °C ) Dew Point ( °F °C ) Humidity (%) Winds ( mph kmh ) Pressure ( in mb ) Visibility ( mi km ) Precip ( " mm )
12:53 am 00:53 Cloudy 0 -17.8 -13 -25 54 54 SW 3 6 30.52 1033 10 16 0.00 0.00
1:53 am 01:53 Cloudy -1 -18.3 -12 -24.4 59 59 SE 6 9 30.49 1033 10 16 0.00 0.00
2:53 am 02:53 Partly Cloudy -1 -18.3 -12 -24.4 59 59 SE 6 9 30.46 1031 10 16 0.00 0.00
3:53 am 03:53 Cloudy -1 -18.3 -12 -24.4 59 59 SE 6 9 30.42 1030 10 16 0.00 0.00
4:53 am 04:53 Mostly Cloudy -2 -18.9 -12 -24.4 62 62 SE 6 9 30.39 1029 10 16 0.00 0.00
5:53 am 05:53 Cloudy -1 -18.3 -11 -23.9 62 62 SSE 6 9 30.37 1028 10 16 0.00 0.00
6:53 am 06:53 Cloudy 0 -17.8 -10 -23.3 62 62 SE 3 6 30.35 1028 10 16 0.00 0.00
7:28 am 07:28 Cloudy with Light Snow 1 -17.2 -9 -22.8 62 62 S 6 9 30.39 1029 2 3 0.00 0.00
7:39 am 07:39 Cloudy with Light Snow 1 -17.2 -8 -22.2 65 65 SSW 5 7 30.38 1029 2 3 0.00 0.00
7:49 am 07:49 Cloudy with Light Snow 1 -17 -8 -22 65 65 SSW 5 7 30.39 1029 1 2 0.00 0.00
7:53 am 07:53 Cloudy with Light Snow 1 -17.2 -7 -21.7 68 68 SSW 5 7 30.35 1028 1 2 0.00 0.00
8:19 am 08:19 Cloudy with Light Snow 1 -17.2 -6 -21.1 72 72 WSW 6 9 30.39 1029 5 8 0.00 0.00
8:38 am 08:38 Cloudy with Light Snow 1 -17.2 -5 -20.6 75 75 Calm 30.39 1029 2 3 0.01 0.25
8:49 am 08:49 Cloudy with Light Snow 1 -17 -6 -21 71 71 SW 5 7 30.39 1029 2 3 0.01 0.25
8:53 am 08:53 Cloudy with Light Snow 1 -17.2 -5 -20.6 75 75 SW 5 7 30.35 1028 2 3 0.01 0.25
9:53 am 09:53 Cloudy with Light Snow 3 -16.1 -3 -19.4 76 76 WNW 6 9 30.35 1028 2 3 0.01 0.25
10:42 am 10:42 Mostly Cloudy with Light Snow 4 -15.6 -3 -19.4 73 73 NW 12 19 30.40 1029 4 6 0.01 0.25
10:53 am 10:53 Mostly Cloudy with Light Snow 5 -15 -4 -20 66 66 NW 13 20 30.36 1028 5 8 0.01 0.25
11:01 am 11:01 Mostly Cloudy with Haze 5 -15 -3 -19.4 69 69 NNW 12 19 30.40 1030 4 6 0.00 0.00
11:53 am 11:53 Mostly Cloudy with Haze 6 -14.4 -3 -19.4 66 66 N 16 26 30.36 1028 6 10 0.00 0.00
12:53 pm 12:53 Mostly Cloudy with Haze 7 -13.9 -3 -19.4 63 63 NNW 15 24 30.37 1029 5 8 0.00 0.00
1:53 pm 13:53 Mostly Cloudy 8 -13.3 -3 -19.4 60 60 NW 13 20 30.38 1029 10 16 0.00 0.00
2:07 pm 14:07 Mostly Cloudy 8 -13.3 -4 -20 57 57 WNW 13 20 30.42 1030 10 16 0.00 0.00
2:53 pm 14:53 Mostly Cloudy 8 -13.3 -4 -20 57 57 WNW 15 24 30.40 1030 10 16 0.00 0.00
3:53 pm 15:53 Partly Cloudy 7 -13.9 -5 -20.6 57 57 NW 18 30 30.43 1031 10 16 0.00 0.00
4:53 pm 16:53 Partly Cloudy 7 -13.9 -5 -20.6 57 57 NNW 12 19 30.46 1032 10 16 0.00 0.00
5:53 pm 17:53 Mostly Clear 5 -15 -6 -21.1 60 60 NW 9 15 30.49 1032 10 16 0.00 0.00
6:53 pm 18:53 Clear 3 -16.1 -7 -21.7 62 62 NW 7 11 30.50 1033 10 16 0.00 0.00
7:53 pm 19:53 Clear 2 -16.7 -7 -21.7 65 65 W 10 17 30.52 1033 10 16 0.00 0.00
8:53 pm 20:53 Clear 0 -17.8 -9 -22.8 65 65 W 13 20 30.54 1034 10 16 0.00 0.00
9:53 pm 21:53 Clear -2 -18.9 -11 -23.9 65 65 W 7 11 30.54 1034 10 16 0.00 0.00
10:53 pm 22:53 Partly Cloudy -3 -19.4 -11 -23.9 68 68 W 3 6 30.52 1034 10 16 0.00 0.00
11:53 pm 23:53 Mostly Clear -3 -19.4 -11 -23.9 68 68 WSW 3 6 30.51 1033 9 14 0.00 0.00

Powered by AerisWeather